Retour au catalogue

STARLINK-31050

ActifCommunicationsVLEO
NORAD 58546·PAYLOAD·🇺🇸 United States

Lancé Dec 8, 2023 depuis Vandenberg Space Force Base

Loading…

Prochains Passages (prochaines 24 heures)

TLE

FraisSource: CelesTrak SupGP

Époque: Sep 15, 2026, 02:40 UTC

1 58546C 23192R   26258.11159722 -.00018323  00000+0 -54134-3 0  2582
2 58546  53.1586 259.0635 0001328  89.0625 166.7734 15.34401135    14

Suivez STARLINK-31050 en temps réel avec AllMySat

Download on the App Store